Location: Unspecified
(0.0000°N, 0.0000°E)
Time: 19:25:13
(UTC+00:00)

Courier 1B Rocket - Visible Passes

Search period start: 18 April 2019 00:00
Search period end: 28 April 2019 00:00
Orbit: 920 x 1202 km, 28.2° (Epoch: 17 April)

Date Brightness Start Highest point End Pass type
(mag) Time Alt. Az. Time Alt. Az. Time Alt. Az.
18 Apr 6.0 03:32:45 39° NNE 03:32:45 39° NNE 03:37:17 10° NE visible
18 Apr 6.9 05:20:19 10° WNW 05:24:38 17° NNW 05:29:08 10° NNE visible
19 Apr 7.6 02:35:38 13° ENE 02:35:38 13° ENE 02:36:11 10° ENE visible
19 Apr 6.3 04:22:01 23° NW 04:23:14 24° NNW 04:28:42 10° NNE visible
20 Apr 6.7 03:24:50 25° NNE 03:24:50 25° NNE 03:28:04 10° NE visible
20 Apr 7.2 05:14:24 10° NW 05:16:23 11° NNW 05:18:24 10° N visible
21 Apr 6.8 04:14:00 16° NNW 04:14:52 16° NNW 04:18:47 10° NNE visible
22 Apr 7.1 03:16:45 16° NNE 03:16:45 16° NNE 03:18:33 10° NNE visible
24 Apr 7.5 03:08:30 10° N 03:08:30 10° N 03:08:34 10° N visible
